[[{"header":{"parameterUnit":"m.s-1","parameterCategory":1,"la1":30.2991,"la2":30.254,"lo1":-89.0895,"lo2":-89.0444,"dy":0.0017,"dx":0.0017,"nx":28,"ny":28,"refTime":"2023-07-24T03:00:00:Z","depth":0,"parameterNumber":2,"parameterNumberName":"U-component_of_WINDS"},"data":[0,0,0,0,0,0,0,0,0,0,0,0,0,0,0,0,0,0,0,0,0,0,0,0,0,0,0,0,0,0,0,0,0,0,0,0,0,0,0,0,0,0,0,0,0,0,0,0,0,0,0,0,0,0,0,0,0,0,-0.2286,-0.2284,0,-0.2142,-0.214,-0.2139,-0.205,-0.205,-0.205,-0.2049,-0.1901,-0.1898,-0.1894,0,0,0,0,0,0,0,0,0,0,0,0,0,-0.2485,-0.2482,-0.2286,-0.2284,-0.2282,-0.2142,-0.214,-0.2138,-0.2051,-0.205,-0.2049,-0.2049,-0.1902,-0.1898,-0.1894,0,0,0,0,0,0,0,0,0,0,0,0,0,-0.2376,-0.2481,-0.2286,-0.2222,-0.2214,-0.2142,-0.214,-0.2138,-0.2051,-0.205,-0.2049,-0.2049,-0.1904,-0.1899,-0.1893,-0.1874,0,0,-0.1877,-0.1875,0,0,0,0,0,0,0,0,-0.2382,-0.2369,-0.2233,-0.2226,-0.2218,-0.2113,-0.2156,-0.2049,-0.2051,-0.2113,-0.2049,-0.2048,-0.1972,-0.1961,-0.1936,-0.1867,-0.1861,-0.1877,-0.1873,-0.1871,-0.187,0,0,0,0,0,0,0,-0.239,-0.2374,-0.2229,-0.2231,-0.2222,-0.22,-0.2184,-0.2135,-0.2048,-0.2107,-0.2101,-0.2085,-0.1968,-0.1941,-0.1932,-0.1859,-0.1877,-0.1872,-0.1869,-0.1867,-0.1768,-0.1769,0,0,0,0,0,0,-0.2408,-0.2381,-0.2233,-0.2224,-0.23,-0.2197,-0.2179,-0.2148,-0.2048,-0.2033,-0.2086,-0.2081,-0.195,-0.1938,-0.1926,-0.1897,-0.1871,-0.1866,-0.1863,-0.1768,-0.1768,-0.1769,0,0,0,0,0,0,-0.2412,-0.2395,-0.2239,-0.2301,-0.2279,-0.2194,-0.216,-0.2145,-0.2118,-0.2032,-0.2016,-0.2074,-0.1949,-0.1934,-0.1888,-0.1891,-0.1864,-0.1859,-0.1767,-0.1768,-0.1769,-0.184,0,0,0,0,0,0,-0.2418,-0.2398,-0.2389,-0.2301,-0.2277,-0.2203,-0.216,-0.2143,-0.2109,-0.2102,-0.2017,-0.2002,-0.1948,-0.1896,-0.1883,-0.1883,-0.1855,-0.1766,-0.1767,-0.1768,-0.1837,-0.1843,-0.1848,0,0,0,0,0,-0.2426,-0.2414,-0.2389,-0.2372,-0.2264,-0.2204,-0.2189,-0.2127,-0.211,-0.2101,-0.2046,-0.2005,-0.1893,-0.1892,-0.1876,-0.1875,-0.1766,-0.1767,-0.1768,-0.1834,-0.1842,-0.1848,0,0,0,0,0,0,-0.2504,-0.2402,-0.2372,-0.2332,-0.2278,-0.2189,-0.2175,-0.2137,-0.2086,-0.2081,-0.2006,-0.1988,-0.195,-0.1908,-0.1909,-0.1852,-0.1825,-0.1823,-0.1881,-0.1887,-0.1893,-0.1903,-0.1851,0,0,0,0,0,-0.2517,-0.2476,-0.2389,-0.2362,-0.2336,-0.2261,-0.2232,-0.2189,-0.2129,-0.2106,-0.2047,-0.1991,-0.1943,-0.1913,-0.1864,-0.1831,-0.1811,-0.1822,-0.1828,-0.1833,-0.1832,-0.1812,-0.1816,-0.1773,-0.1773,-0.1773,0,0,-0.2542,-0.2481,-0.246,-0.2376,-0.2329,-0.2289,-0.2242,-0.2201,-0.2171,-0.2099,-0.2053,-0.2008,-0.194,-0.1901,-0.1881,-0.1865,-0.184,-0.1835,-0.184,-0.1835,-0.1814,-0.1818,-0.1822,-0.1774,-0.1774,-0.1773,0,0,-0.2568,-0.2518,-0.249,-0.2444,-0.2373,-0.2323,-0.2317,-0.2234,-0.2202,-0.2155,-0.2101,-0.2064,-0.1983,-0.1937,-0.1903,-0.1914,-0.1874,-0.19,-0.193,-0.1911,-0.1915,-0.1917,-0.1921,-0.1924,-0.19,-0.19,-0.19,0,-0.2608,-0.2545,-0.2481,-0.2443,-0.2408,-0.2343,-0.2315,-0.2273,-0.219,-0.2167,-0.2151,-0.2049,-0.1999,-0.1948,-0.1951,-0.1926,-0.1917,-0.1909,-0.192,-0.1922,-0.1923,-0.1926,-0.1928,-0.1903,-0.1903,-0.1903,-0.1902,0,-0.2599,-0.2557,-0.2543,-0.2465,-0.2428,-0.2396,-0.2327,-0.2298,-0.2259,-0.2211,-0.2164,-0.2102,-0.204,-0.2025,-0.1986,-0.197,-0.1962,-0.1934,-0.1905,-0.1932,-0.1934,-0.1934,-0.1909,-0.1907,-0.1906,-0.1905,0,0,-0.2668,-0.2556,-0.2552,-0.2516,-0.2434,-0.24,-0.2365,-0.2305,-0.2282,-0.2227,-0.2196,-0.2131,-0.2104,-0.2066,-0.2022,-0.2006,-0.2019,-0.1979,-0.1977,-0.1989,-0.1998,-0.2019,-0.2022,-0.1993,-0.1993,-0.1993,-0.2004,0,-0.2681,-0.2615,-0.2556,-0.2512,-0.2472,-0.2411,-0.2381,-0.2327,-0.2283,-0.2243,-0.2193,-0.2148,-0.2117,-0.2094,-0.2075,-0.2022,-0.202,-0.202,-0.1964,-0.1963,-0.1982,-0.2022,-0.2044,-0.2057,-0.2004,-0.2004,-0.2004,0,-0.2687,-0.2636,-0.2588,-0.2511,-0.2492,-0.2466,-0.2406,-0.2369,-0.2308,-0.2277,-0.2236,-0.2189,-0.215,-0.2127,-0.2073,-0.2074,-0.2048,-0.2019,-0.2018,-0.2009,-0.1984,-0.2015,-0.2059,-0.2061,-0.2004,-0.2004,-0.2004,0,-0.2742,-0.2661,-0.2622,-0.2593,-0.2503,-0.2486,-0.2447,-0.2385,-0.2354,-0.2302,-0.2281,-0.2226,-0.2196,-0.2154,-0.2095,-0.2083,-0.2047,-0.2018,-0.202,-0.2022,-0.2014,-0.2015,-0.2055,-0.1999,-0.1999,-0.1999,-0.1999,0,-0.2763,-0.2736,-0.2646,-0.2622,-0.259,-0.2524,-0.2494,-0.245,-0.2396,-0.2363,-0.2307,-0.2277,-0.22,-0.2162,-0.2115,-0.2078,-0.2064,-0.2038,-0.2026,-0.2043,-0.2046,-0.2024,-0.2021,-0.1999,-0.1999,-0.1999,-0.1999,0,-0.2818,-0.2757,-0.271,-0.2629,-0.2608,-0.2588,-0.2518,-0.2493,-0.2446,-0.2405,-0.2391,-0.2317,-0.2269,-0.2206,-0.2137,-0.2106,-0.2074,-0.2056,-0.2095,-0.2088,-0.2093,-0.2093,-0.2118,-0.2118,-0.2064,-0.2065,-0.2065,0,-0.2835,-0.2813,-0.2729,-0.2703,-0.2666,-0.2625,-0.2592,-0.2527,-0.2496,-0.2425,-0.2409,-0.2356,-0.231,-0.2236,-0.2176,-0.2124,-0.2104,-0.2116,-0.2095,-0.2113,-0.2103,-0.2105,-0.2103,-0.2121,-0.2122,-0.2123,-0.2123,0,-0.2871,-0.2842,-0.2797,-0.2743,-0.2706,-0.2659,-0.261,-0.2592,-0.2517,-0.2485,-0.2435,-0.2399,-0.233,-0.2279,-0.2219,-0.218,-0.2139,-0.2131,-0.2128,-0.2145,-0.2168,-0.2156,-0.2109,-0.213,-0.2129,-0.2129,-0.2129,-0.2128,-0.2907,-0.2885,-0.2823,-0.2776,-0.2732,-0.2688,-0.2661,-0.2611,-0.2568,-0.2507,-0.2471,-0.2423,-0.2364,-0.2279,-0.2242,-0.2203,-0.2188,-0.2184,-0.2183,-0.2183,-0.2189,-0.2176,-0.2192,-0.2192,-0.2192,-0.2192,-0.2191,0,-0.294,-0.2898,-0.2855,-0.2789,-0.2752,-0.2718,-0.2663,-0.2634,-0.2592,-0.254,-0.2497,-0.244,-0.2391,-0.2328,-0.2274,-0.2256,-0.2236,-0.2244,-0.2244,-0.2236,-0.2206,-0.2213,-0.2261,-0.2261,-0.2261,-0.2261,-0.2261,-0.2261,-0.2953,-0.2914,-0.2878,-0.2818,-0.2775,-0.2728,-0.2699,-0.2659,-0.2617,-0.2556,-0.2515,-0.2475,-0.2419,-0.2361,-0.2315,-0.2297,-0.228,-0.2294,-0.2271,-0.2244,-0.2238,-0.2232,-0.2238,-0.2291,-0.2291,-0.2304,-0.2304,-0.2304]},{"header":{"parameterUnit":"m.s-1","parameterCategory":1,"la1":30.2991,"la2":30.254,"lo1":-89.0895,"lo2":-89.0444,"dy":0.0017,"dx":0.0017,"nx":28,"ny":28,"refTime":"2023-07-24T03:00:00:Z","depth":0,"parameterNumber":3,"parameterNumberName":"V-component_of_WINDS"},"data":[0,0,0,0,0,0,0,0,0,0,0,0,0,0,0,0,0,0,0,0,0,0,0,0,0,0,0,0,0,0,0,0,0,0,0,0,0,0,0,0,0,0,0,0,0,0,0,0,0,0,0,0,0,0,0,0,0,0,3.044,3.044,0,3.0438,3.0438,3.0438,3.0468,3.0469,3.047,3.0471,3.0466,3.0465,3.0464,0,0,0,0,0,0,0,0,0,0,0,0,0,3.0469,3.0468,3.044,3.044,3.044,3.0438,3.0438,3.0438,3.0468,3.0469,3.047,3.0471,3.0466,3.0465,3.0464,0,0,0,0,0,0,0,0,0,0,0,0,0,3.046,3.0468,3.044,3.0455,3.0456,3.0438,3.0438,3.0438,3.0468,3.0469,3.047,3.0471,3.0467,3.0465,3.0464,3.0431,0,0,3.046,3.0459,0,0,0,0,0,0,0,0,3.0461,3.0459,3.0453,3.0454,3.0455,3.0455,3.0446,3.0435,3.0467,3.0463,3.0471,3.0472,3.0461,3.046,3.0457,3.0431,3.043,3.046,3.0459,3.0458,3.0458,0,0,0,0,0,0,0,3.0461,3.0459,3.0439,3.0453,3.0454,3.0461,3.0461,3.0444,3.0455,3.0464,3.0466,3.0465,3.0462,3.0458,3.0457,3.043,3.046,3.0459,3.0458,3.0457,3.0374,3.0373,0,0,0,0,0,0,3.046,3.046,3.0439,3.0439,3.0461,3.0459,3.046,3.0454,3.0455,3.0457,3.0464,3.0467,3.046,3.0459,3.0457,3.0417,3.0459,3.0457,3.0456,3.0376,3.0374,3.0373,0,0,0,0,0,0,3.046,3.0458,3.0439,3.045,3.0448,3.0458,3.0451,3.0453,3.0449,3.0456,3.0458,3.0459,3.0461,3.0459,3.0437,3.0417,3.0457,3.0455,3.0377,3.0375,3.0373,3.0336,0,0,0,0,0,0,3.0461,3.0458,3.0446,3.045,3.0448,3.042,3.0449,3.0452,3.0447,3.045,3.0451,3.0452,3.0462,3.0439,3.0435,3.0416,3.0454,3.0379,3.0376,3.0374,3.0339,3.0333,3.0328,0,0,0,0,0,3.0462,3.0436,3.0445,3.0443,3.0433,3.0419,3.0417,3.0429,3.0445,3.0433,3.0437,3.0452,3.042,3.0436,3.0433,3.0412,3.038,3.0377,3.0374,3.0342,3.0334,3.0328,0,0,0,0,0,0,3.0429,3.0436,3.0447,3.0421,3.0419,3.0424,3.0409,3.0421,3.0414,3.0417,3.0432,3.0432,3.0407,3.0408,3.0426,3.0379,3.0403,3.0399,3.0379,3.0372,3.0367,3.0366,3.0453,0,0,0,0,0,3.0419,3.0408,3.0414,3.0391,3.0389,3.0399,3.0393,3.0403,3.0401,3.04,3.0402,3.0399,3.0388,3.0381,3.0371,3.034,3.034,3.0324,3.0319,3.0314,3.031,3.0291,3.0284,3.0362,3.0362,3.0362,0,0,3.0398,3.04,3.0392,3.0384,3.0384,3.037,3.0398,3.0383,3.0373,3.0397,3.0376,3.0378,3.0375,3.0348,3.0336,3.0348,3.0288,3.031,3.0306,3.0305,3.0287,3.028,3.0273,3.036,3.036,3.0361,0,0,3.0352,3.0353,3.0333,3.0332,3.0331,3.0337,3.0332,3.0335,3.0337,3.0316,3.0334,3.0321,3.0303,3.03,3.0295,3.0247,3.026,3.0244,3.0213,3.0195,3.0189,3.0184,3.0164,3.0158,3.024,3.024,3.024,0,3.0325,3.0307,3.0321,3.0304,3.03,3.0322,3.03,3.0298,3.0294,3.0289,3.0303,3.0279,3.0279,3.025,3.0238,3.0235,3.0228,3.0243,3.0189,3.0184,3.0179,3.0161,3.0154,3.0238,3.0238,3.0238,3.0238,0,3.0273,3.026,3.0243,3.0238,3.0232,3.0213,3.0224,3.0215,3.0225,3.023,3.0207,3.0208,3.0198,3.0192,3.0202,3.0164,3.0171,3.0187,3.021,3.0169,3.0152,3.0145,3.0235,3.0235,3.0236,3.0237,0,0,3.0206,3.0209,3.0202,3.0199,3.0199,3.0189,3.0171,3.0161,3.0153,3.0149,3.0133,3.0116,3.013,3.0125,3.0135,3.0119,3.0078,3.0136,3.0136,3.0124,3.0034,3.0021,3.0013,3.0087,3.0086,3.0085,3.0034,0,3.0159,3.0129,3.014,3.0108,3.0095,3.0115,3.0099,3.0096,3.01,3.0089,3.0093,3.008,3.01,3.0097,3.0083,3.0086,3.006,3.009,3.007,3.007,3.0069,3.0004,2.9991,2.9942,3.0027,3.0026,3.0026,0,3.0101,3.0095,3.0061,3.0062,3.0057,3.0042,3.0034,3.0023,3.002,3.0024,3.0018,3.003,3.0011,3.0036,3.0008,3.0028,3.0021,3.0021,3.002,3.0017,3.0044,2.9998,2.9928,2.9919,3.0016,3.0016,3.0017,0,3.0053,3.0036,3.0013,3.0011,3.0012,3.0,3.0,2.9999,2.9992,2.9984,2.9979,2.997,2.9964,2.9955,2.9964,2.9982,2.9934,2.996,2.9935,2.9935,2.9923,2.9923,2.9848,2.9921,2.9922,2.9922,2.9922,0,2.9999,2.9977,2.9991,2.9977,2.9953,2.9966,2.9942,2.9944,2.9942,2.9927,2.9945,2.993,2.9944,2.993,2.9937,2.9912,2.991,2.9911,2.9912,2.9908,2.9908,2.9902,2.9905,2.992,2.992,2.9921,2.9921,0,2.9941,2.995,2.9926,2.9929,2.9929,2.991,2.9912,2.9898,2.9903,2.9885,2.9881,2.9888,2.9873,2.9882,2.9866,2.9871,2.9837,2.9845,2.9838,2.984,2.9813,2.9815,2.9731,2.972,2.9801,2.9801,2.98,0,2.9905,2.9888,2.9889,2.9881,2.988,2.9866,2.9859,2.9872,2.9863,2.9858,2.9844,2.9831,2.9821,2.9796,2.9799,2.9787,2.9793,2.9764,2.9791,2.9786,2.979,2.979,2.9787,2.9758,2.9757,2.9756,2.9756,0,2.984,2.9845,2.9834,2.9825,2.9816,2.9809,2.9803,2.9795,2.9808,2.9797,2.9782,2.9774,2.9758,2.9744,2.9733,2.9732,2.9745,2.9748,2.9741,2.9735,2.9731,2.9731,2.9822,2.9749,2.975,2.975,2.9751,2.9751,2.979,2.9776,2.9774,2.9761,2.9758,2.9752,2.9739,2.9742,2.973,2.9718,2.9726,2.9708,2.9704,2.9691,2.9688,2.9673,2.9684,2.9675,2.9672,2.9669,2.9664,2.9735,2.9671,2.9671,2.9671,2.9672,2.9672,0,2.9724,2.9724,2.9712,2.9703,2.9693,2.9707,2.9701,2.9691,2.9675,2.9671,2.966,2.9642,2.9628,2.963,2.9617,2.9604,2.961,2.96,2.96,2.9599,2.9656,2.9662,2.9596,2.9596,2.9596,2.9596,2.9596,2.9596,2.9688,2.9664,2.9669,2.9643,2.9642,2.9625,2.962,2.9614,2.961,2.9589,2.9578,2.958,2.9577,2.9564,2.9551,2.9552,2.9545,2.9533,2.9536,2.9588,2.9596,2.9603,2.9609,2.9532,2.9532,2.948,2.9479,2.9479]}]]